Location: Katowice
(50.2611°N, 19.0242°E)
Time: 15:31:11
(UTC+02:00)

Vanguard 1 - All Passes

Search period start: 21 July 2019 00:00
Search period end: 31 July 2019 00:00
Orbit: 653 x 3830 km, 34.3° (Epoch: 20 July)

Date Brightness Start Highest point End Pass type
(mag) Time Alt. Az. Time Alt. Az. Time Alt. Az.
21 Jul - 01:19:06 10° W 01:37:50 36° SSW 01:55:58 10° SSE visible
21 Jul - 03:49:14 10° W 03:59:06 15° SW 04:08:15 10° SSW visible
21 Jul - 18:38:22 10° SSW 18:49:17 29° SE 19:05:05 10° E daylight
21 Jul - 20:55:51 10° SW 21:10:57 47° SSE 21:32:08 10° ESE visible
21 Jul - 23:16:42 10° WSW 23:34:56 47° SSW 23:56:05 10° SE visible
22 Jul - 01:40:44 10° W 01:58:23 31° SW 02:15:28 10° SSE visible
22 Jul - 16:48:07 10° SE 16:50:40 11° ESE 16:53:27 10° ESE daylight
22 Jul - 18:58:08 10° SSW 19:09:38 34° SSE 19:26:50 10° E daylight
22 Jul - 21:16:27 10° WSW 21:31:50 48° S 21:53:17 10° ESE visible
22 Jul - 23:37:46 10° W 23:55:52 44° SSW 00:16:31 10° SE visible
23 Jul - 02:02:43 10° W 02:18:49 26° SW 02:34:27 10° S visible
23 Jul - 17:04:14 10° SSE 17:10:34 15° SE 17:18:39 10° E daylight
23 Jul - 19:18:12 10° SW 19:30:08 38° SSE 19:48:23 10° E daylight
23 Jul - 21:37:11 10° WSW 21:52:48 48° S 22:14:18 10° ESE visible
23 Jul - 23:58:57 10° W 00:16:43 40° SSW 00:36:43 10° SE visible
24 Jul - 02:25:18 10° W 02:39:08 20° SW 02:52:38 10° S visible
24 Jul - 17:22:46 10° S 17:30:36 20° SE 17:41:30 10° E daylight
24 Jul - 19:38:28 10° SW 19:50:45 42° SSE 20:09:47 10° E daylight
24 Jul - 21:58:00 10° WSW 22:13:46 47° S 22:35:10 10° ESE visible
25 Jul - 00:20:18 10° W 00:37:29 35° SSW 00:56:35 10° SSE visible
25 Jul - 02:49:09 10° WSW 02:59:21 15° SW 03:09:24 10° SSW visible
25 Jul - 17:42:03 10° S 17:50:46 25° SE 18:03:39 10° E daylight
25 Jul - 19:58:54 10° SW 20:11:30 44° SSE 20:31:05 10° ESE daylight
25 Jul - 22:18:54 10° WSW 22:34:44 45° S 22:55:52 10° SE visible
26 Jul - 00:41:52 10° W 00:58:09 30° SW 01:16:01 10° SSE visible
26 Jul - 18:01:48 10° SSW 18:11:04 30° SSE 18:25:26 10° E daylight
26 Jul - 20:19:29 10° WSW 20:32:20 46° S 20:52:16 10° ESE daylight
26 Jul - 22:39:55 10° W 22:55:41 42° SSW 23:16:19 10° SE visible
27 Jul - 01:03:48 10° W 01:18:44 25° SW 01:34:54 10° S visible
27 Jul - 16:09:18 10° SSE 16:12:40 12° SE 16:16:37 10° ESE daylight
27 Jul - 18:21:50 10° SSW 18:31:31 34° SSE 18:47:00 10° E daylight
27 Jul - 20:40:10 10° WSW 20:53:13 46° S 21:13:19 10° ESE visible
27 Jul - 23:01:03 10° W 23:16:34 38° SSW 23:36:29 10° SE visible
28 Jul - 01:26:23 10° W 01:39:12 20° SW 01:52:55 10° S visible
28 Jul - 16:27:07 10° SSE 16:32:42 16° SE 16:40:08 10° ESE daylight
28 Jul - 18:42:06 10° SW 18:52:05 38° SSE 19:08:26 10° ESE daylight
28 Jul - 21:00:56 10° WSW 21:14:10 45° S 21:34:13 10° ESE visible
28 Jul - 23:22:21 10° W 23:37:24 33° SSW 23:56:18 10° SSE visible
29 Jul - 01:50:19 10° WSW 01:59:35 14° SW 02:09:20 10° SSW visible
29 Jul - 16:46:14 10° S 16:52:52 21° SE 17:02:26 10° E daylight
29 Jul - 19:02:30 10° SW 19:12:46 40° SSE 19:29:44 10° ESE daylight
29 Jul - 21:21:48 10° WSW 21:35:06 42° S 21:54:55 10° SE visible
29 Jul - 23:43:53 10° W 23:58:11 28° SSW 00:15:39 10° SSE visible
30 Jul - 17:05:55 10° SSW 17:13:09 26° SE 17:24:16 10° E daylight
30 Jul - 19:23:03 10° WSW 19:33:33 42° S 19:50:56 10° ESE daylight
30 Jul - 21:42:47 10° WSW 21:56:02 39° SSW 22:15:22 10° SE visible
